Time,TemperatureF,DewpointF,PressureIn,WindDirection,WindDirectionDegrees,WindSpeedMPH,WindSpeedGustMPH,Humidity,HourlyPrecipIn,Conditions,Clouds,dailyrainin,SoftwareType,DateUTC
2013-03-25 00:11:00,59.8,37.0,30.01,North,351,0.0,-999.0,43,-99.99,,,0.00,weatherlink.com 1.10,2013-03-25 07:11:00,
2013-03-25 00:41:00,60.1,37.0,30.00,North,355,0.0,-999.0,42,-99.99,,,0.00,weatherlink.com 1.10,2013-03-25 07:41:00,
2013-03-25 01:11:00,60.1,37.0,30.00,North,355,0.0,-999.0,42,-99.99,,,0.00,weatherlink.com 1.10,2013-03-25 08:11:00,
2013-03-25 01:26:00,60.2,37.0,30.00,North,355,0.0,-999.0,42,-99.99,,,0.00,weatherlink.com 1.10,2013-03-25 08:26:00,
2013-03-25 01:41:00,60.3,36.0,30.00,North,355,0.0,-999.0,41,-99.99,,,0.00,weatherlink.com 1.10,2013-03-25 08:41:00,
2013-03-25 01:56:00,60.5,36.0,30.00,North,355,0.0,-999.0,40,-99.99,,,0.00,weatherlink.com 1.10,2013-03-25 08:56:00,
2013-03-25 02:11:00,60.8,36.0,30.00,North,355,0.0,-999.0,40,-99.99,,,0.00,weatherlink.com 1.10,2013-03-25 09:11:00,
2013-03-25 02:26:00,60.6,35.0,29.99,North,355,0.0,-999.0,39,-99.99,,,0.00,weatherlink.com 1.10,2013-03-25 09:26:00,
2013-03-25 02:41:00,60.3,36.0,29.99,North,355,0.0,-999.0,40,-99.99,,,0.00,weatherlink.com 1.10,2013-03-25 09:41:00,
2013-03-25 02:56:00,60.3,36.0,29.99,North,355,0.0,-999.0,40,-99.99,,,0.00,weatherlink.com 1.10,2013-03-25 09:56:00,
2013-03-25 03:26:00,59.0,35.0,29.98,NNE,22,0.0,-999.0,41,-99.99,,,0.00,weatherlink.com 1.10,2013-03-25 10:26:00,
2013-03-25 03:41:00,59.0,35.0,29.98,NE,42,0.0,-999.0,41,-99.99,,,0.00,weatherlink.com 1.10,2013-03-25 10:41:00,
2013-03-25 03:56:00,58.8,35.0,29.98,NE,41,0.0,-999.0,41,-99.99,,,0.00,weatherlink.com 1.10,2013-03-25 10:56:00,
2013-03-25 04:11:00,58.9,35.0,29.98,NE,42,0.0,-999.0,41,-99.99,,,0.00,weatherlink.com 1.10,2013-03-25 11:11:00,
2013-03-25 04:26:00,59.5,35.0,29.98,NE,42,0.0,-999.0,40,-99.99,,,0.00,weatherlink.com 1.10,2013-03-25 11:26:00,
2013-03-25 04:41:00,59.5,35.0,29.98,NE,42,0.0,-999.0,40,-99.99,,,0.00,weatherlink.com 1.10,2013-03-25 11:41:00,
2013-03-25 04:56:00,60.2,35.0,29.98,NE,42,0.0,-999.0,39,-99.99,,,0.00,weatherlink.com 1.10,2013-03-25 11:56:00,
2013-03-25 05:26:00,60.4,35.0,29.98,NE,42,0.0,-999.0,39,-99.99,,,0.00,weatherlink.com 1.10,2013-03-25 12:26:00,
2013-03-25 05:41:00,60.0,35.0,29.97,NE,41,0.0,-999.0,39,-99.99,,,0.00,weatherlink.com 1.10,2013-03-25 12:41:00,
2013-03-25 05:56:00,59.8,35.0,29.98,NE,42,0.0,-999.0,39,-99.99,,,0.00,weatherlink.com 1.10,2013-03-25 12:56:00,
2013-03-25 06:26:00,59.2,35.0,29.98,NE,42,0.0,-999.0,41,-99.99,,,0.00,weatherlink.com 1.10,2013-03-25 13:26:00,
2013-03-25 06:41:00,59.0,35.0,29.98,NE,42,0.0,-999.0,41,-99.99,,,0.00,weatherlink.com 1.10,2013-03-25 13:41:00,
2013-03-25 06:56:00,59.0,35.0,29.99,NE,42,0.0,-999.0,41,-99.99,,,0.00,weatherlink.com 1.10,2013-03-25 13:56:00,
2013-03-25 07:11:00,59.2,35.0,29.99,NE,42,0.0,-999.0,41,-99.99,,,0.00,weatherlink.com 1.10,2013-03-25 14:11:00,
2013-03-25 07:26:00,59.0,35.0,30.00,NE,42,0.0,-999.0,41,-99.99,,,0.00,weatherlink.com 1.10,2013-03-25 14:26:00,
2013-03-25 07:41:00,59.0,35.0,30.00,NE,42,0.0,-999.0,41,-99.99,,,0.00,weatherlink.com 1.10,2013-03-25 14:41:00,
2013-03-25 07:56:00,59.0,35.0,30.00,NE,42,0.0,-999.0,41,-99.99,,,0.00,weatherlink.com 1.10,2013-03-25 14:56:00,
2013-03-25 08:11:00,59.7,37.0,30.00,NE,48,0.0,-999.0,43,-99.99,,,0.00,weatherlink.com 1.10,2013-03-25 15:11:00,
2013-03-25 08:26:00,59.9,37.0,30.01,NE,48,0.0,-999.0,42,-99.99,,,0.00,weatherlink.com 1.10,2013-03-25 15:26:00,
2013-03-25 08:41:00,60.4,39.0,30.01,NE,55,0.0,-999.0,46,-99.99,,,0.00,weatherlink.com 1.10,2013-03-25 15:41:00,
2013-03-25 08:56:00,60.9,39.0,30.01,NE,55,0.0,-999.0,45,-99.99,,,0.00,weatherlink.com 1.10,2013-03-25 15:56:00,
2013-03-25 09:10:00,60.8,41.0,30.02,NE,55,0.0,-999.0,48,-99.99,,,0.00,weatherlink.com 1.10,2013-03-25 16:10:00,
2013-03-25 09:25:00,61.4,42.0,30.02,NE,55,0.0,-999.0,49,-99.99,,,0.00,weatherlink.com 1.10,2013-03-25 16:25:00,
2013-03-25 09:40:00,61.5,40.0,30.02,NE,55,0.0,-999.0,46,-99.99,,,0.00,weatherlink.com 1.10,2013-03-25 16:40:00,
2013-03-25 09:55:00,62.3,41.0,30.02,NE,55,0.0,-999.0,45,-99.99,,,0.00,weatherlink.com 1.10,2013-03-25 16:55:00,
2013-03-25 10:10:00,62.2,42.0,30.03,NE,55,0.0,-999.0,47,-99.99,,,0.00,weatherlink.com 1.10,2013-03-25 17:10:00,
2013-03-25 10:25:00,64.3,43.0,30.02,NE,55,0.0,-999.0,47,-99.99,,,0.00,weatherlink.com 1.10,2013-03-25 17:25:00,
2013-03-25 10:55:00,63.3,41.0,30.03,NE,53,0.0,-999.0,44,-99.99,,,0.00,weatherlink.com 1.10,2013-03-25 17:55:00,
2013-03-25 11:10:00,62.7,40.0,30.04,NE,39,0.0,-999.0,44,-99.99,,,0.00,weatherlink.com 1.10,2013-03-25 18:10:00,
2013-03-25 11:25:00,64.3,40.0,30.03,NE,37,0.0,-999.0,41,-99.99,,,0.00,weatherlink.com 1.10,2013-03-25 18:25:00,
2013-03-25 11:40:00,64.2,41.0,30.03,NE,37,0.0,-999.0,43,-99.99,,,0.00,weatherlink.com 1.10,2013-03-25 18:40:00,
2013-03-25 11:55:00,63.0,41.0,30.03,NNE,32,0.0,-999.0,44,-99.99,,,0.00,weatherlink.com 1.10,2013-03-25 18:55:00,
2013-03-25 12:10:00,62.9,40.0,30.03,North,5,0.0,-999.0,44,-99.99,,,0.00,weatherlink.com 1.10,2013-03-25 19:10:00,
2013-03-25 12:25:00,63.3,39.0,30.02,North,5,0.0,-999.0,41,-99.99,,,0.00,weatherlink.com 1.10,2013-03-25 19:25:00,
2013-03-25 12:40:00,64.0,40.0,30.03,North,351,0.0,-999.0,42,-99.99,,,0.00,weatherlink.com 1.10,2013-03-25 19:40:00,
2013-03-25 12:55:00,64.8,44.0,30.02,NNW,329,0.0,-999.0,48,-99.99,,,0.00,weatherlink.com 1.10,2013-03-25 19:55:00,
2013-03-25 13:10:00,64.1,42.0,30.01,WNW,295,0.0,-999.0,44,-99.99,,,0.00,weatherlink.com 1.10,2013-03-25 20:10:00,
2013-03-25 13:25:00,63.7,41.0,30.01,West,260,0.0,-999.0,43,-99.99,,,0.00,weatherlink.com 1.10,2013-03-25 20:25:00,
2013-03-25 13:40:00,63.9,41.0,30.00,West,260,0.0,-999.0,44,-99.99,,,0.00,weatherlink.com 1.10,2013-03-25 20:40:00,
2013-03-25 13:55:00,64.2,43.0,30.00,West,261,0.0,-999.0,46,-99.99,,,0.00,weatherlink.com 1.10,2013-03-25 20:55:00,
2013-03-25 14:10:00,64.1,39.0,30.00,SW,235,0.0,-999.0,40,-99.99,,,0.00,weatherlink.com 1.10,2013-03-25 21:10:00,
2013-03-25 14:25:00,64.1,40.0,30.00,WSW,243,0.0,-999.0,41,-99.99,,,0.00,weatherlink.com 1.10,2013-03-25 21:25:00,
2013-03-25 14:40:00,65.1,41.0,29.99,WSW,242,0.0,-999.0,41,-99.99,,,0.00,weatherlink.com 1.10,2013-03-25 21:40:00,
2013-03-25 14:55:00,66.6,41.0,29.98,WSW,240,0.0,-999.0,40,-99.99,,,0.00,weatherlink.com 1.10,2013-03-25 21:55:00,
2013-03-25 15:10:00,66.0,40.0,29.98,WSW,247,0.0,-999.0,39,-99.99,,,0.00,weatherlink.com 1.10,2013-03-25 22:10:00,
2013-03-25 15:25:00,65.8,41.0,29.98,WSW,246,0.0,-999.0,41,-99.99,,,0.00,weatherlink.com 1.10,2013-03-25 22:25:00,
2013-03-25 15:40:00,65.9,40.0,29.98,WSW,244,0.0,-999.0,39,-99.99,,,0.00,weatherlink.com 1.10,2013-03-25 22:40:00,
2013-03-25 15:55:00,64.3,36.0,29.98,WSW,252,0.0,-999.0,35,-99.99,,,0.00,weatherlink.com 1.10,2013-03-25 22:55:00,
2013-03-25 16:10:00,65.7,39.0,29.98,WSW,250,0.0,-999.0,38,-99.99,,,0.00,weatherlink.com 1.10,2013-03-25 23:10:00,
2013-03-25 16:25:00,65.4,36.0,29.98,WSW,258,0.0,-999.0,34,-99.99,,,0.00,weatherlink.com 1.10,2013-03-25 23:25:00,
2013-03-25 16:40:00,63.9,39.0,29.97,WSW,258,0.0,-999.0,40,-99.99,,,0.00,weatherlink.com 1.10,2013-03-25 23:40:00,
2013-03-25 16:55:00,65.0,38.0,29.97,WSW,257,0.0,-999.0,37,-99.99,,,0.00,weatherlink.com 1.10,2013-03-25 23:55:00,
2013-03-25 17:10:00,63.3,36.0,29.96,WSW,256,0.0,-999.0,37,-99.99,,,0.00,weatherlink.com 1.10,2013-03-26 00:10:00,
2013-03-25 17:25:00,62.6,38.0,29.96,WSW,256,0.0,-999.0,40,-99.99,,,0.00,weatherlink.com 1.10,2013-03-26 00:25:00,
2013-03-25 17:40:00,63.6,41.0,29.96,West,260,0.0,-999.0,44,-99.99,,,0.00,weatherlink.com 1.10,2013-03-26 00:40:00,
2013-03-25 17:55:00,62.2,39.0,29.96,West,260,0.0,-999.0,43,-99.99,,,0.00,weatherlink.com 1.10,2013-03-26 00:55:00,
2013-03-25 18:10:00,60.1,42.0,29.96,West,260,0.0,-999.0,52,-99.99,,,0.00,weatherlink.com 1.10,2013-03-26 01:10:00,
2013-03-25 18:25:00,59.7,39.0,29.96,West,260,0.0,-999.0,47,-99.99,,,0.00,weatherlink.com 1.10,2013-03-26 01:25:00,
2013-03-25 18:40:00,59.9,38.0,29.97,West,260,0.0,-999.0,45,-99.99,,,0.00,weatherlink.com 1.10,2013-03-26 01:40:00,
2013-03-25 18:55:00,59.5,37.0,29.97,NNW,341,2.0,-999.0,44,-99.99,,,0.00,weatherlink.com 1.10,2013-03-26 01:55:00,
2013-03-25 19:10:00,59.2,31.0,29.97,NNW,341,0.0,-999.0,34,-99.99,,,0.00,weatherlink.com 1.10,2013-03-26 02:10:00,
2013-03-25 19:25:00,59.0,35.0,29.97,NNW,342,0.0,-999.0,41,-99.99,,,0.00,weatherlink.com 1.10,2013-03-26 02:25:00,
2013-03-25 19:40:00,58.6,27.0,29.97,NNW,342,0.0,-999.0,30,-99.99,,,0.00,weatherlink.com 1.10,2013-03-26 02:40:00,
2013-03-25 19:55:00,59.0,27.0,29.97,NNW,342,0.0,-999.0,29,-99.99,,,0.00,weatherlink.com 1.10,2013-03-26 02:55:00,
2013-03-25 20:10:00,59.4,28.0,29.97,NNW,341,0.0,-999.0,30,-99.99,,,0.00,weatherlink.com 1.10,2013-03-26 03:10:00,
2013-03-25 20:25:00,59.4,28.0,29.98,NNW,342,0.0,-999.0,30,-99.99,,,0.00,weatherlink.com 1.10,2013-03-26 03:25:00,
2013-03-25 20:40:00,59.0,28.0,29.98,NNW,341,0.0,-999.0,31,-99.99,,,0.00,weatherlink.com 1.10,2013-03-26 03:40:00,
2013-03-25 20:55:00,58.6,29.0,29.98,NNW,342,0.0,-999.0,33,-99.99,,,0.00,weatherlink.com 1.10,2013-03-26 03:55:00,
2013-03-25 21:10:00,58.2,31.0,29.98,NNW,346,0.0,-999.0,36,-99.99,,,0.00,weatherlink.com 1.10,2013-03-26 04:10:00,
2013-03-25 21:25:00,58.0,30.0,29.99,NNW,346,0.0,-999.0,35,-99.99,,,0.00,weatherlink.com 1.10,2013-03-26 04:25:00,
2013-03-25 21:40:00,56.9,28.0,30.00,NNW,346,0.0,-999.0,33,-99.99,,,0.00,weatherlink.com 1.10,2013-03-26 04:40:00,
2013-03-25 21:55:00,56.3,26.0,30.00,NNW,346,0.0,-999.0,31,-99.99,,,0.00,weatherlink.com 1.10,2013-03-26 04:55:00,
2013-03-25 22:10:00,56.3,24.0,30.00,NNE,14,0.0,-999.0,29,-99.99,,,0.00,weatherlink.com 1.10,2013-03-26 05:10:00,
2013-03-25 22:25:00,56.3,23.0,30.00,NNE,14,0.0,-999.0,28,-99.99,,,0.00,weatherlink.com 1.10,2013-03-26 05:25:00,
2013-03-25 22:40:00,56.6,23.0,30.01,NNE,14,0.0,-999.0,27,-99.99,,,0.00,weatherlink.com 1.10,2013-03-26 05:40:00,
2013-03-25 22:55:00,56.9,23.0,30.01,NNE,14,0.0,-999.0,27,-99.99,,,0.00,weatherlink.com 1.10,2013-03-26 05:55:00,
2013-03-25 23:10:00,56.7,21.0,30.00,NNE,14,0.0,-999.0,25,-99.99,,,0.00,weatherlink.com 1.10,2013-03-26 06:10:00,
2013-03-25 23:26:00,56.5,24.0,30.00,NNE,14,0.0,-999.0,28,-99.99,,,0.00,weatherlink.com 1.10,2013-03-26 06:26:00,
2013-03-25 23:41:00,56.5,19.0,30.00,NNE,14,0.0,-999.0,23,-99.99,,,0.00,weatherlink.com 1.10,2013-03-26 06:41:00,
2013-03-25 23:56:00,56.8,18.0,30.00,NNE,14,0.0,-999.0,22,-99.99,,,0.00,weatherlink.com 1.10,2013-03-26 06:56:00,